User: anonymous
Location: Unspecified
(0.0000°N, 0.0000°E)
Time: 16:15:23
(UTC+02:00)
Language:

Transit 2A - Orbit

View from above orbital plane
View from above orbital plane
View from above satellite
View from above satellite

Ground track
Ground track

The orbit data is extracted from the following two-line orbital elements,

1 00045U 60007A   14274.06325240  .00000291  00000-0  10097-3 0  2515
2 00045 066.6937 117.7383 0253500 032.5533 135.3862 14.33072721823667
Epoch (UTC): 01 October 2014 01:31:05
Eccentricity: 0.0253500
inclination: 66.6937°
perigee height: 600 km
apogee height: 963 km
right ascension of ascending node: 117.7383°
argument of perigee: 32.5533°
revolutions per day: 14.33072721
mean anomaly at epoch: 135.3862°
orbit number at epoch: 82366

The dashed part of the orbit path shows where the satellite is in the earth's shadow,  

DLR